Location: Archemont
(49.1579°N, 1.7598°E)
Time: 02:35:30
(UTC+00:00)

Vanguard 3 - Pass Details

Date: 23 April 2024
Orbit: 509 x 3233 km, 33.3° (Epoch: 24 May)

Event Time Altitude Azimuth Distance (km) Brightness Sun altitude
Exits shadow 03:42:34 10° 227° (SW) 5,411 10.7 -10.0°
Maximum altitude 03:54:42 32° 174° (S) 3,001 9.8 -8.3°
Drops below altitude 10° 04:02:41 10° 116° (ESE) 3,504 10.9 -7.2°
Sets 04:05:27 0° 106° (ESE) 4,149 11.5 -6.8°
